Philip, SD

11:21 PM MST on February 08, 2016 (GMT -0700)
Philip

Weather History for KPHP - May, 2012

Change the Weather History Date:

Sunday, May 20, 2012

  Actual Average Record
Temperature  
Mean Temperature 54 °F 59 °F  
Max Temperature 70 °F 72 °F 98 °F (1992)
Min Temperature 38 °F 46 °F 28 °F (1968)
Degree Days  
Heating Degree Days 11 7  
Month to date heating degree days 133 206  
Since 1 July heating degree days 5754 7073  
Cooling Degree Days 0 1  
Month to date cooling degree days 26 15  
Year to date cooling degree days 40 18  
Growing Degree Days 4 (Base 50)    
Moisture  
Dew Point 39 °F    
Average Humidity 61    
Maximum Humidity 92    
Minimum Humidity 29    
Precipitation  
Precipitation 0.00 in 0.09 in 1.36 in (1957)
Month to date precipitation 0.95 1.95  
Year to date precipitation 3.59 5.84  
Sea Level Pressure  
Sea Level Pressure 30.19 in    
Wind  
Wind Speed 7 mph (SSE)    
Max Wind Speed 16 mph    
Max Gust Speed 21 mph    
Visibility 10 miles    
Events      
T = Trace of Precipitation, MM = Missing Value Source: NWS Daily Summary

Daily Weather History Graph

Daily Weather History Graph

Search for Another Location

Airport or City:

Trip Planner

Search our weather history database for the weather conditions in past years. The results will help you decide how hot, cold, wet, or windy it might be!

Date:

Astronomy

May. 20, 2012 Rise Set
Actual Time 5:14 AM MDT 8:11 PM MDT
Civil Twilight 4:40 AM MDT 8:46 PM MDT
Nautical Twilight 3:57 AM MDT 9:29 PM MDT
Astronomical Twilight 3:05 AM MDT 10:21 PM MDT
Moon 4:56 AM MDT (5/20) 8:12 PM MDT (5/20)
Length of Visible Light 16h 05m
Length of Day
14h 57m
Waning Crescent, 0% of the Moon is Illuminated
May 20
Waning Crescent
May 20
New
May 28
First Quarter
Jun 4
Full
Jun 11
Last Quarter

Hourly Weather History & Observations

Time (MDT) Temp. Windchill Dew Point Humidity Pressure Visibility Wind Dir Wind Speed Gust Speed Precip Events Conditions
12:55 AM 44.1 °F 41.5 °F 41.0 °F 89% 30.14 in 10.0 mi West 4.6 mph - N/A   Clear
1:55 AM 42.1 °F 38.4 °F 39.9 °F 92% 30.14 in 10.0 mi West 5.8 mph - N/A   Clear
2:55 AM 43.0 °F 40.3 °F 39.9 °F 89% 30.16 in 10.0 mi WNW 4.6 mph - N/A   Clear
3:55 AM 41.0 °F 38.0 °F 37.9 °F 89% 30.17 in 10.0 mi WNW 4.6 mph - N/A   Clear
4:55 AM 39.0 °F 35.7 °F 37.0 °F 93% 30.18 in 10.0 mi West 4.6 mph - N/A   Clear
5:55 AM 39.9 °F 33.9 °F 37.9 °F 93% 30.20 in 10.0 mi West 9.2 mph - N/A   Clear
6:55 AM 45.0 °F 40.6 °F 42.1 °F 90% 30.21 in 10.0 mi West 8.1 mph - N/A   Clear
7:55 AM 52.0 °F - 45.0 °F 77% 30.22 in 10.0 mi West 5.8 mph - N/A   Clear
8:55 AM 59.0 °F - 44.1 °F 58% 30.24 in 10.0 mi SSW 4.6 mph - N/A   Clear
9:55 AM 62.1 °F - 39.0 °F 43% 30.25 in 10.0 mi ESE 4.6 mph - N/A   Clear
10:55 AM 64.0 °F - 36.0 °F 35% 30.24 in 10.0 mi Calm Calm - N/A   Clear
11:55 AM 66.0 °F - 35.1 °F 32% 30.24 in 10.0 mi East 5.8 mph - N/A   Clear
12:55 PM 66.0 °F - 34.0 °F 30% 30.23 in 10.0 mi Variable 5.8 mph - N/A   Clear
1:55 PM 66.9 °F - 37.0 °F 33% 30.22 in 10.0 mi Variable 5.8 mph - N/A   Clear
2:55 PM 68.0 °F - 37.9 °F 33% 30.20 in 10.0 mi Variable 6.9 mph - N/A   Clear
3:55 PM 69.1 °F - 37.0 °F 31% 30.18 in 10.0 mi SSE 11.5 mph 20.7 mph N/A   Clear
4:55 PM 70.0 °F - 37.0 °F 30% 30.17 in 10.0 mi SE 13.8 mph - N/A   Clear
5:55 PM 69.1 °F - 37.9 °F 32% 30.16 in 10.0 mi SSE 10.4 mph - N/A   Clear
6:55 PM 66.9 °F - 37.0 °F 33% 30.14 in 10.0 mi ESE 11.5 mph - N/A   Clear
7:55 PM 60.1 °F - 41.0 °F 49% 30.14 in 10.0 mi ESE 10.4 mph - N/A   Clear
8:55 PM 55.0 °F - 43.0 °F 64% 30.15 in 10.0 mi ESE 8.1 mph - N/A   Clear
9:55 PM 53.1 °F - 43.0 °F 69% 30.17 in 10.0 mi East 8.1 mph - N/A   Clear
10:55 PM 50.0 °F - 42.1 °F 74% 30.17 in 10.0 mi ENE 8.1 mph - N/A   Clear
11:55 PM 50.0 °F - 42.1 °F 74% 30.16 in 10.0 mi East 6.9 mph - N/A   Clear